Location: *
(34.8620°S, 39.3380°E)
Time: 22:48:40
(UTC+00:00)

SAOCOM 1-B - Pass Details

Date: 01 June 2022
Orbit: 621 x 623 km, 97.9° (Epoch: 01 July)

Event Time Altitude Azimuth Distance (km) Brightness Sun altitude
Rises 02:15:57 0° 141° (SE) 2,934 ? -25.2°
Reaches altitude 10° 02:20:03 10° 103° (ESE) 2,013 ? -24.4°
Maximum altitude 02:21:07 11° 89° (E) 1,959 ? -24.2°
Drops below altitude 10° 02:22:11 10° 74° (ENE) 2,006 ? -23.9°
Sets 02:26:13 0° 36° (NE) 2,898 ? -23.1°
